Tracking 25709 objects as of 24-May-2022
HD Live streaming from Space Station
objects crossing your sky now

SL-12 R/B(2)

Track SL-12 R/B(2) now!


NORAD ID: 23845
Int'l Code: 1996-021D
Perigee: 11,829.2 km
Apogee: 36,093.8 km
Inclination: 8.2 °
Period: 876.2 minutes
Semi major axis: 30332 km
RCS: 34.7717 m2 (large)
Launch date: April 8, 1996
Source: Commonwealth of Independent States (former USSR) (CIS)
Launch site: TYURATAM MISSILE AND SPACE COMPLEX (TTMTR)

Note: This is a ROCKET BODY
aabbcc
Your satellite tracking list
Your tracking list is empty




NASA's NSSDC Master Catalog

Two Line Element Set (TLE):
1 23845U 96021D   22143.47988417 -.00000170  00000-0  00000-0 0  9999
2 23845   8.1664 322.9680 3999777  93.7197  33.7878  1.64339315156784
Source of the keplerian elements: AFSPC